STARLINK-5893 (55952 NORAD) Tracking and Keplerian Element Data

This shows tracking and keplerian element data for the satellite.

Feedback or suggestion? Click here.




ElementValue
Catalog55952
NameSTARLINK-5893
Epoch Orbit843
Epoch Day127.12177847
Epoch Year2023
RAAN39.4902
Inclination70.0022
Eccentricity0.0003266
Argument of Perigee260.8973
Mean Anonmoly99.1853
Mean Motion15.69912199
Decay Rate-1.907E-05
L11 55952U 23037AQ 23127.12177847 -.00001907 00000+0 -14102-4 0 9993
L22 55952 70.0022 39.4902 0003266 260.8973 99.1853 15.69912199 8430



Live tracking and technical data element details for STARLINK-5893 (NORAD 55952). STARLINK-5893 can be tracked NOW for your location showing map with azimuth and elevation plus other details from your city location.







IsCatalogInMostPopularTable: catalog: 55952, numindb: 9
Update: records affected: 1



GetName: 55952 STARLINK-5893

Hit Count: updated at: Tue, 06 Jun 2023 02:21:16 GMT